This demonstration page uses our WeatherBlox Daily Observations layout. Learn more.

Left ArrowRight Arrow

Hourly Observations for November 13, 2020

Temp ( °F °C ) Dew Point ( °F °C ) Humidity (%) Winds ( mph kmh ) Pressure ( in mb ) Visibility ( mi km ) Precip ( " mm )
12:15 am 00:15 Mostly Cloudy 34 1 34 1 100 100 N N/A 30.08 1019 10 16 N/A
12:35 am 00:35 Partly Cloudy 36 2 36 2 100 100 S 3 6 30.07 1018 10 16 N/A
12:55 am 00:55 Mostly Cloudy 36 2 36 2 100 100 N N/A 30.07 1018 10 16 N/A
1:15 am 01:15 Cloudy 36 2 36 2 100 100 N N/A 30.07 1018 10 16 N/A
1:35 am 01:35 Cloudy 37 3 37 3 100 100 N N/A 30.06 1018 10 16 N/A
1:55 am 01:55 Cloudy 37 3 37 3 100 100 N N/A 30.05 1018 10 16 N/A
2:15 am 02:15 Cloudy 37 3 37 3 100 100 N N/A 30.06 1018 10 16 N/A
2:35 am 02:35 Cloudy 39 4 39 4 100 100 N N/A 30.06 1018 10 16 N/A
2:55 am 02:55 Cloudy 39 4 39 4 100 100 N N/A 30.05 1018 10 16 N/A
3:15 am 03:15 Cloudy 39 4 39 4 100 100 N N/A 30.06 1018 10 16 N/A
3:35 am 03:35 Cloudy 37 3 37 3 100 100 N N/A 30.06 1018 10 16 N/A
3:55 am 03:55 Cloudy 37 3 37 3 100 100 N N/A 30.06 1018 10 16 N/A
4:15 am 04:15 Mostly Cloudy 37 3 37 3 100 100 N N/A 30.06 1018 10 16 N/A
4:35 am 04:35 Partly Cloudy 36 2 36 2 100 100 N N/A 30.08 1019 10 16 N/A
4:55 am 04:55 Clear 36 2 36 2 100 100 N N/A 30.08 1019 10 16 N/A
5:15 am 05:15 Partly Cloudy 32 undefined 32 undefined 100 100 N N/A 30.09 1019 10 16 N/A
5:35 am 05:35 Mostly Cloudy 34 1 34 1 100 100 N N/A 30.09 1019 10 16 N/A
5:55 am 05:55 Partly Cloudy 32 undefined 32 undefined 100 100 N N/A 30.11 1019 10 16 N/A
6:15 am 06:15 Clear 32 undefined 32 undefined 100 100 N N/A 30.12 1020 10 16 N/A
6:35 am 06:35 Clear 30 -1 30 -1 100 100 N N/A 30.11 1020 10 16 N/A
6:55 am 06:55 Clear 32 undefined 32 undefined 100 100 N N/A 30.11 1019 10 16 N/A
7:15 am 07:15 Clear 32 undefined 32 undefined 100 100 N N/A 30.12 1020 10 16 N/A
7:35 am 07:35 Sunny 32 undefined 32 undefined 100 100 N N/A 30.13 1020 10 16 N/A
7:55 am 07:55 Sunny 32 undefined 32 undefined 100 100 N N/A 30.14 1020 10 16 N/A
8:15 am 08:15 Sunny 32 undefined 32 undefined 100 100 W 5 7 30.14 1020 10 16 N/A
8:35 am 08:35 Sunny 37 3 37 3 100 100 W 5 7 30.13 1020 10 16 N/A
8:55 am 08:55 Sunny 41 5 39 4 93 93 WNW 6 9 30.13 1020 10 16 N/A
9:15 am 09:15 Sunny 43 6 39 4 87 87 WNW 6 9 30.13 1020 5 8 N/A
9:35 am 09:35 Sunny 45 7 41 5 87 87 WNW 10 17 30.15 1021 10 16 N/A
9:55 am 09:55 Sunny 45 7 41 5 87 87 WNW 13 20 30.16 1021 10 16 N/A
10:15 am 10:15 Sunny 45 7 43 6 93 93 WNW 14 22 30.17 1022 10 16 N/A
10:35 am 10:35 Mostly Cloudy 45 7 43 6 93 93 W 14 22 30.18 1022 10 16 N/A
10:55 am 10:55 Cloudy 41 5 41 5 100 100 WNW 9 15 30.20 1023 7 11 N/A
11:15 am 11:15 Cloudy 41 5 41 5 100 100 WNW 10 17 30.20 1023 10 16 N/A
11:35 am 11:35 Cloudy 41 5 41 5 100 100 WNW 12 19 30.21 1023 10 16 N/A
11:55 am 11:55 Cloudy 41 5 41 5 100 100 WNW 8 13 30.22 1023 10 16 N/A
12:15 pm 12:15 Mostly Cloudy 43 6 39 4 87 87 W 6 9 30.21 1023 10 16 N/A
12:35 pm 12:35 Partly Cloudy 46 8 37 3 71 71 WNW 12 19 30.20 1023 10 16 N/A
12:55 pm 12:55 Sunny 48 9 36 2 62 62 NW 12 19 30.19 1022 10 16 N/A
1:15 pm 13:15 Sunny 48 9 34 1 58 58 W 9 15 30.18 1022 10 16 N/A
1:35 pm 13:35 Sunny 48 9 34 1 58 58 NW 14 22 30.18 1022 10 16 N/A
1:55 pm 13:55 Sunny 48 9 34 1 58 58 NW 10 17 30.18 1022 10 16 N/A
2:15 pm 14:15 Sunny 48 9 36 2 62 62 NW 8 13 30.18 1022 10 16 N/A
2:35 pm 14:35 Sunny 48 9 34 1 58 58 W 12 19 30.19 1022 10 16 N/A
2:55 pm 14:55 Sunny 48 9 32 undefined 54 54 WNW 14 22 30.19 1022 10 16 N/A
3:15 pm 15:15 Sunny 46 8 32 undefined 57 57 WNW 9 15 30.20 1023 10 16 N/A
3:35 pm 15:35 Sunny 46 8 32 undefined 57 57 WNW 12 19 30.20 1023 10 16 N/A
3:55 pm 15:55 Sunny 46 8 32 undefined 57 57 WNW 9 15 30.20 1023 10 16 N/A
4:15 pm 16:15 Sunny 46 8 32 undefined 57 57 WNW 10 17 30.21 1023 10 16 N/A
4:35 pm 16:35 Sunny 45 7 32 undefined 61 61 W 12 19 30.21 1023 10 16 N/A
4:55 pm 16:55 Sunny 43 6 30 -1 61 61 W 9 15 30.21 1023 10 16 N/A
5:15 pm 17:15 Sunny 41 5 30 -1 66 66 W 8 13 30.22 1023 10 16 N/A
5:35 pm 17:35 Clear 39 4 30 -1 70 70 W 7 11 30.22 1023 10 16 N/A
5:55 pm 17:55 Clear 36 2 30 -1 81 81 W 6 9 30.24 1024 10 16 N/A
6:15 pm 18:15 Clear 36 2 30 -1 81 81 WNW 6 9 30.24 1024 10 16 N/A
6:35 pm 18:35 Clear 36 2 30 -1 81 81 WNW 6 9 30.24 1024 10 16 N/A
6:55 pm 18:55 Clear 36 2 28 -2 75 75 NW 3 6 30.24 1024 10 16 N/A
7:15 pm 19:15 Clear 36 2 30 -1 81 81 WNW 3 6 30.24 1024 10 16 N/A
7:35 pm 19:35 Clear 34 1 30 -1 87 87 N N/A 30.25 1024 10 16 N/A
7:55 pm 19:55 Clear 28 -2 28 -2 100 100 N N/A 30.26 1025 10 16 N/A
8:15 pm 20:15 Clear 30 -1 30 -1 100 100 NNW 3 6 30.26 1025 10 16 N/A
8:35 pm 20:35 Clear 32 undefined 30 -1 93 93 N N/A 30.26 1025 10 16 N/A
8:55 pm 20:55 Clear 28 -2 28 -2 100 100 N N/A 30.25 1024 10 16 N/A
9:15 pm 21:15 Clear 28 -2 28 -2 100 100 N N/A 30.26 1025 10 16 N/A
9:35 pm 21:35 Clear 28 -2 28 -2 100 100 N N/A 30.26 1025 10 16 N/A
9:55 pm 21:55 Clear 28 -2 28 -2 100 100 N N/A 30.26 1025 10 16 N/A
10:15 pm 22:15 Clear 27 -3 27 -3 100 100 N N/A 30.26 1025 10 16 N/A
10:35 pm 22:35 Clear 27 -3 27 -3 100 100 N N/A 30.26 1025 10 16 N/A
10:55 pm 22:55 Clear 27 -3 27 -3 100 100 NE 3 6 30.26 1025 10 16 N/A
11:15 pm 23:15 Clear 25 -4 25 -4 100 100 N N/A 30.25 1024 10 16 N/A
11:35 pm 23:35 Clear 25 -4 25 -4 100 100 N N/A 30.25 1024 10 16 N/A
11:55 pm 23:55 Clear 23 -5 23 -5 100 100 N N/A 30.25 1025 10 16 N/A

Powered by AerisWeather